(116389) = 2003 YO127

Discovered at Socorro on 2003-12-27 by LINEAR.

Orbit

Orbit type: Main Belt

Note: WebGL enabled browser required.

epoch2023-09-13.0
epoch JD2460200.5
perihelion date2019-05-07.44806
perihelion JD2458610.94806
argument of perihelion (°)216.07533
ascending node (°)50.61668
inclination (°)10.58283
eccentricity0.0482178
perihelion distance (AU)2.5709991
Tisserand w.r.t. Jupiter3.3
ΔV w.r.t. Earth (km/sec)10.6
semimajor axis (AU)2.7012472
mean anomaly (°)352.88409
mean daily motion (°/day)0.22200220
aphelion distance (AU)2.831
period (years)4.44
P-vector [x]-0.06544480
P-vector [y]-0.86710450
P-vector [z]-0.49380843
Q-vector [x]0.98770780
Q-vector [y]0.01410743
Q-vector [z]-0.15567364
absolute magnitude15.67
phase slope0.15
uncertainty0
referenceMPEC 2024-A12
observations used781
oppositions17
arc length (days)8979
first opposition used1998
last opposition used2023
residual rms (arc-secs)0.74
perturbers coarse indicatorM-v
perturbers precise indicator003Ek
first observation date used1998-11-18.0
last observation date used2023-06-19.0
computer nameMPCLINUX
JD of orbit computation2456877.706374
perihelion JD uncertainty (days)2.7108E-04
argument of perihelion uncertainty (°)6.2572E-05
ascending node uncertainty (°)1.9190E-05
inclination uncertainty (°)6.1395E-06
eccentricity uncertainty 5.4913E-08
perihelion distance uncertainty (AU)1.5442E-07
Minimum Orbit Intersection Distances (in AU)
for orbit epoch: 2460200.5, reference: E2024-A12
Mercury2.10522
Venus1.84898
Earth1.56258
Mars1.03129
Jupiter2.18684
Saturn6.2536
Uranus15.7559
Neptune27.0574

Observations

796 total observations over interval: 1998 11 18.29676 – 2023 06 19.312291
These data are available for download (format description).

Date (UT) J2000 RA J2000 Dec Magn Location Ref
1998 11 18.29676 03 02 28.84 +17 12 33.1 19.4 V 691 – Steward Observatory, Kitt Peak-Spacewatch MPS 97861
1998 11 18.31882 03 02 27.46 +17 12 32.6 19.4 V 691 – Steward Observatory, Kitt Peak-Spacewatch MPS 97861
1998 11 18.34068 03 02 26.13 +17 12 31.9 19.3 V 691 – Steward Observatory, Kitt Peak-Spacewatch MPS 97861
1998 11 26.13149 02 55 00.80 +17 09 05.9 19.8 V 691 – Steward Observatory, Kitt Peak-Spacewatch MPS 97861
1998 11 26.15370 02 54 59.58 +17 09 05.6 19.5 V 691 – Steward Observatory, Kitt Peak-Spacewatch MPS 97861
1998 11 26.17584 02 54 58.34 +17 09 05.0 19.6 V 691 – Steward Observatory, Kitt Peak-Spacewatch MPS 97861
2002 10 01.42396 00 42 43.15 -08 00 59.4 20.3   608 – Haleakala-AMOS MPS 103860
2002 10 01.43442 00 42 42.56 -08 01 00.7 20.2   608 – Haleakala-AMOS MPS 103860
2002 10 01.44502 00 42 41.95 -08 01 02.0 20.0   608 – Haleakala-AMOS MPS 103860
2003 12 03.32761 07 18 28.07 +32 53 52.9 19.9   704 – Lincoln Laboratory ETS, New Mexico MPS 96416
2003 12 03.34112 07 18 27.73 +32 53 56.1 20.4   704 – Lincoln Laboratory ETS, New Mexico MPS 96416
2003 12 03.35617 07 18 27.18 +32 54 01.3 20.2   704 – Lincoln Laboratory ETS, New Mexico MPS 96416
2003 12 03.36905 07 18 26.71 +32 54 06.7 20.3   704 – Lincoln Laboratory ETS, New Mexico MPS 96416
2003 12 27.33155 06 57 44.17 +35 02 35.3 19.4   704 – Lincoln Laboratory ETS, New Mexico MPS 95935
2003 12 27.34541 06 57 43.30 +35 02 38.4 19.8   704 – Lincoln Laboratory ETS, New Mexico MPS 95935
2003 12 27.35843 06 57 42.36 +35 02 41.4 19.7   704 – Lincoln Laboratory ETS, New Mexico MPS 95935
2003 12 29.30377 06 55 34.22 +35 10 44.5 19.0   704 – Lincoln Laboratory ETS, New Mexico MPS 95935
2003 12 29.31714 06 55 33.26 +35 10 47.1 19.6   704 – Lincoln Laboratory ETS, New Mexico MPS 95935
2003 12 29.33052 06 55 32.35 +35 10 50.6 19.3   704 – Lincoln Laboratory ETS, New Mexico MPS 95935
2003 12 29.34459 06 55 31.45 +35 10 54.0 19.3   704 – Lincoln Laboratory ETS, New Mexico MPS 95935
2003 12 29.35933 06 55 30.36 +35 10 57.7 19.2   704 – Lincoln Laboratory ETS, New Mexico MPS 95935
2004 01 19.21735 06 32 54.58 +35 59 36.4 19.6   704 – Lincoln Laboratory ETS, New Mexico MPS 97064
2004 01 19.23021 06 32 53.89 +35 59 37.3 19.7   704 – Lincoln Laboratory ETS, New Mexico MPS 97064
2004 01 19.24296 06 32 53.13 +35 59 37.2 19.7   704 – Lincoln Laboratory ETS, New Mexico MPS 97064
2004 01 19.25568 06 32 52.36 +35 59 36.7 19.7   704 – Lincoln Laboratory ETS, New Mexico MPS 97064
2005 03 10.41050 13 56 12.26 -01 56 26.1 19.3 R 703 – Catalina Sky Survey MPS 130225
2005 03 10.42046 13 56 11.92 -01 56 24.7 19.0 R 703 – Catalina Sky Survey MPS 130225
2005 03 10.43035 13 56 11.64 -01 56 23.7 19.1 R 703 – Catalina Sky Survey MPS 130225
2005 03 10.44021 13 56 11.47 -01 56 22.2 18.9 R 703 – Catalina Sky Survey MPS 130225
2005 03 18.43688 13 52 15.37 -01 39 51.5 19.0 R 703 – Catalina Sky Survey MPS 130225
2005 03 18.44642 13 52 14.84 -01 39 49.2 19.0 R 703 – Catalina Sky Survey MPS 130225
2005 03 18.45596 13 52 14.56 -01 39 49.2 18.7 R 703 – Catalina Sky Survey MPS 130225
2005 03 18.46551 13 52 14.21 -01 39 47.6 18.7 R 703 – Catalina Sky Survey MPS 130225
2005 04 04.36393 13 39 25.88 -00 59 11.7 18.3 R 703 – Catalina Sky Survey MPS 130761
2005 04 04.37200 13 39 25.48 -00 59 11.2 18.5 R 703 – Catalina Sky Survey MPS 130761
2005 04 04.38009 13 39 25.05 -00 59 09.7 18.7 R 703 – Catalina Sky Survey MPS 130761
2005 04 04.38814 13 39 24.62 -00 59 08.2 18.5 R 703 – Catalina Sky Survey MPS 130761
2005 04 05.35067 13 38 32.92 -00 56 57.2 19.5   704 – Lincoln Laboratory ETS, New Mexico MPS 130761
2005 04 05.37412 13 38 31.71 -00 56 53.2 19.2   704 – Lincoln Laboratory ETS, New Mexico MPS 130761
2005 04 05.38488 13 38 31.04 -00 56 50.9 19.5   704 – Lincoln Laboratory ETS, New Mexico MPS 130761
2005 04 13.29328 13 31 10.63 -00 40 42.2 19.3   704 – Lincoln Laboratory ETS, New Mexico MPS 131701
2005 04 13.30437 13 31 09.99 -00 40 41.1 19.0   704 – Lincoln Laboratory ETS, New Mexico MPS 131701
2005 04 13.31578 13 31 09.37 -00 40 39.7 19.2   704 – Lincoln Laboratory ETS, New Mexico MPS 131701
2005 04 13.32688 13 31 08.72 -00 40 38.6 19.5   704 – Lincoln Laboratory ETS, New Mexico MPS 131701
2005 04 14.30883 13 30 13.06 -00 38 57.5 19.4   704 – Lincoln Laboratory ETS, New Mexico MPS 131701
2005 04 14.32228 13 30 12.27 -00 38 56.5 19.1   704 – Lincoln Laboratory ETS, New Mexico MPS 131701
2005 04 14.33229 13 30 11.74 -00 38 55.4 20.0   704 – Lincoln Laboratory ETS, New Mexico MPS 131701
2005 04 14.34261 13 30 11.09 -00 38 54.4 19.4   704 – Lincoln Laboratory ETS, New Mexico MPS 131701
2005 05 07.17461 13 10 39.48 -00 30 58.2 19.9 V 691 – Steward Observatory, Kitt Peak-Spacewatch MPS 133995
2005 05 07.19100 13 10 38.77 -00 30 59.3 19.9 V 691 – Steward Observatory, Kitt Peak-Spacewatch MPS 133995
2005 05 07.20695 13 10 38.08 -00 31 00.5 19.6 V 691 – Steward Observatory, Kitt Peak-Spacewatch MPS 133995
2005 05 08.21881 13 09 56.88 -00 32 17.1 19.0 V 703 – Catalina Sky Survey MPS 133995
2005 05 08.22524 13 09 56.52 -00 32 16.0 19.3 V 703 – Catalina Sky Survey MPS 133995
2005 05 08.23164 13 09 56.30 -00 32 18.2 18.9 V 703 – Catalina Sky Survey MPS 133995
2005 05 08.23806 13 09 56.05 -00 32 19.1 19.1 V 703 – Catalina Sky Survey MPS 133995
2005 05 13.24915 13 06 51.99 -00 40 53.9 18.9 R 703 – Catalina Sky Survey MPS 133995
2005 05 13.25707 13 06 51.64 -00 40 54.9 19.5 R 703 – Catalina Sky Survey MPS 133995
2005 05 13.26505 13 06 51.45 -00 40 55.2 18.7 R 703 – Catalina Sky Survey MPS 133995
2005 05 13.27302 13 06 51.14 -00 40 58.2 19.4 R 703 – Catalina Sky Survey MPS 133995
2005 05 15.16772 13 05 50.74 -00 45 11.9 19.6   644 – Palomar Mountain/NEAT MPS 134859
2005 05 15.18873 13 05 50.04 -00 45 14.9 19.8   644 – Palomar Mountain/NEAT MPS 134859
2005 05 15.21088 13 05 49.34 -00 45 18.0 19.9   644 – Palomar Mountain/NEAT MPS 134859
2006 07 18.59716 22 06 00.79 -29 08 48.8 19.3 V E12 – Siding Spring Survey MPS 175064
2006 07 18.60914 22 06 00.39 -29 08 53.9 19.1 V E12 – Siding Spring Survey MPS 175064
2006 07 18.62135 22 05 59.96 -29 08 59.2 19.2 V E12 – Siding Spring Survey MPS 175064
2006 07 18.63380 22 05 59.56 -29 09 04.5 19.5 V E12 – Siding Spring Survey MPS 175064
2006 08 14.28440 21 44 22.76 -31 44 48.9 19.1 R 644 – Palomar Mountain/NEAT MPS 178135
2006 08 14.28558 21 44 22.73 -31 44 49.4 18.9 R 644 – Palomar Mountain/NEAT MPS 178135
2006 08 14.30524 21 44 21.56 -31 44 53.2 19.7 R 644 – Palomar Mountain/NEAT MPS 178135
2006 08 14.30644 21 44 21.43 -31 44 53.8 19.5 R 644 – Palomar Mountain/NEAT MPS 178135
2006 08 14.32611 21 44 20.29 -31 44 58.6 19.6 R 644 – Palomar Mountain/NEAT MPS 178135
2006 08 14.32731 21 44 20.20 -31 44 59.2 19.1 R 644 – Palomar Mountain/NEAT MPS 178135
2007 09 15.41362 04 20 29.76 +20 31 07.1 19.8 V G96 – Mt. Lemmon Survey MPS 217591
2007 09 15.41928 04 20 29.90 +20 31 08.4 19.9 V G96 – Mt. Lemmon Survey MPS 217591
2007 09 15.42490 04 20 30.04 +20 31 09.5 19.9 V G96 – Mt. Lemmon Survey MPS 217591
2007 09 15.43049 04 20 30.19 +20 31 11.0 19.7 V G96 – Mt. Lemmon Survey MPS 217591
2007 10 16.39462 04 21 23.40 +22 02 47.6 19.8 V G96 – Mt. Lemmon Survey MPS 222143
2007 10 16.40009 04 21 23.25 +22 02 48.4 19.8 V G96 – Mt. Lemmon Survey MPS 222143
2007 10 16.40561 04 21 23.11 +22 02 49.3 19.9 V G96 – Mt. Lemmon Survey MPS 222143
2007 10 16.41109 04 21 23.00 +22 02 49.9 19.8 V G96 – Mt. Lemmon Survey MPS 222143
2007 11 06.57610 04 07 09.92 +22 43 14.5 19.7 R D29 – Purple Mountain Observatory, XuYi Station MPS 226403
2007 11 06.58929 04 07 09.18 +22 43 14.7 19.2 R D29 – Purple Mountain Observatory, XuYi Station MPS 226403
2007 11 06.60791 04 07 08.14 +22 43 16.5 19.6 R D29 – Purple Mountain Observatory, XuYi Station MPS 226403
2007 11 06.62092 04 07 07.44 +22 43 18.0 19.2 R D29 – Purple Mountain Observatory, XuYi Station MPS 226403
2007 11 07.21332 04 06 34.90 +22 44 03.0 19.5 V 691 – Steward Observatory, Kitt Peak-Spacewatch MPS 226403
2007 11 07.23795 04 06 33.50 +22 44 05.0 19.7 V 691 – Steward Observatory, Kitt Peak-Spacewatch MPS 226403
2007 11 07.25566 04 06 32.51 +22 44 06.5 19.7 V 691 – Steward Observatory, Kitt Peak-Spacewatch MPS 226403
2007 11 13.26928 04 00 43.35 +22 50 30.3 19.4 r 699 – Lowell Observatory-LONEOS MPS 228004
